{"data":{"norad_id":48411,"epoch":"2026-09-20T03:17:39.729696Z","epoch_age_seconds":64946,"freshness":"FRESH","line1":"1 48411U 21038BL  26263.13726539  .00000745  00000+0  35755-4 0  9991","line2":"2 48411  53.1597 108.9302 0001076 105.6572 254.4549 15.31719813297777","mean_motion":15.31719813,"eccentricity":0.0001076,"inclination_deg":53.1597,"raan_deg":108.9302,"arg_perigee_deg":105.6572,"mean_anomaly_deg":254.4549,"bstar":3.5755e-5,"rev_number":29777,"period_min":94.011971887968,"perigee_km":469.94400153054,"apogee_km":471.41786715001,"semimajor_km":6848.8179343403,"source":"CELESTRAK","updated_at":"2026-09-20T09:00:39.122500Z"}}